Weather History for KRSW - January, 2013

Change the Weather History Date:

Thursday, January 31, 2013

  Actual Average (KFMY) Record (KFMY)
Temperature  
Mean Temperature 61 °F 65 °F  
Max Temperature 71 °F 76 °F 87 °F (1975)
Min Temperature 50 °F 54 °F 28 °F (1966)
Degree Days  
Heating Degree Days 4 3  
Month to date heating degree days 112  
Since 1 July heating degree days 201  
Cooling Degree Days 0 3  
Month to date cooling degree days 83  
Year to date cooling degree days 83  
Growing Degree Days 11 (Base 50)    
Moisture  
Dew Point 54 °F    
Average Humidity 76    
Maximum Humidity 94    
Minimum Humidity 35    
Precipitation  
Precipitation 0.16 in 0.06 in 0.70 in (1926)
Month to date precipitation 1.94  
Year to date precipitation 1.94  
Sea Level Pressure  
Sea Level Pressure 30.08 in    
Wind  
Wind Speed 8 mph (North)    
Max Wind Speed 13 mph    
Max Gust Speed 26 mph    
Visibility 8 miles    
Events Rain    
T = Trace of Precipitation, MM = Missing Value Source: NWS Daily Summary

Daily Weather History Graph

Daily Weather History Graph

Search for Another Location

Airport or City:

Trip Planner

Search our weather history database for the weather conditions in past years. The results will help you decide how hot, cold, wet, or windy it might be!

Date:

Astronomy

Jan. 31, 2013 Rise Set
Actual Time 7:12 AM EST 6:09 PM EST
Civil Twilight 6:48 AM EST 6:33 PM EST
Nautical Twilight 6:20 AM EST 7:01 PM EST
Astronomical Twilight 5:52 AM EST 7:28 PM EST
Moon 10:34 PM EST (1/31) 9:42 AM EST (1/31)
Length of Visible Light 11h 45m
Length of Day
10h 56m
Waning Gibbous, 80% of the Moon is Illuminated
Jan 31
Waning Gibbous
Feb 3
Last Quarter
Feb 10
New
Feb 17
First Quarter
Feb 25
Full

Hourly Weather History & Observations

Time (EST) Temp. Dew Point Humidity Pressure Visibility Wind Dir Wind Speed Gust Speed Precip Events Conditions
12:53 AM 69.1 °F 66.0 °F 90% 29.97 in 10.0 mi South 8.1 mph - N/A   Clear
1:53 AM 69.1 °F 66.0 °F 90% 29.96 in 10.0 mi South 6.9 mph - N/A   Clear
2:53 AM 69.1 °F 66.9 °F 93% 29.96 in 10.0 mi South 5.8 mph - N/A   Scattered Clouds
3:53 AM 70.0 °F 68.0 °F 93% 29.94 in 10.0 mi South 6.9 mph - N/A   Mostly Cloudy
4:44 AM 68.0 °F 64.4 °F 88% 29.98 in 10.0 mi NNW 11.5 mph 24.2 mph N/A   Overcast
4:53 AM 64.0 °F 61.0 °F 90% 29.99 in 2.5 mi NNW 10.4 mph 26.5 mph 0.06 in Rain Heavy Rain
4:58 AM 64.4 °F 60.8 °F 88% 30.00 in 3.0 mi NNW 12.7 mph 26.5 mph 0.00 in Rain Light Rain
5:06 AM 62.6 °F 59.0 °F 88% 30.01 in 10.0 mi North 12.7 mph 23.0 mph 0.00 in Rain Light Rain
5:51 AM 60.8 °F 57.2 °F 88% 30.03 in 5.0 mi North 8.1 mph 19.6 mph 0.03 in Rain Light Rain
5:53 AM 60.1 °F 57.9 °F 93% 30.03 in 5.0 mi NNW 8.1 mph 19.6 mph 0.03 in Rain Light Rain
6:02 AM 60.8 °F 57.2 °F 88% 30.04 in 5.0 mi North 11.5 mph - 0.01 in Rain Light Rain
6:12 AM 60.8 °F 57.2 °F 88% 30.04 in 4.0 mi North 10.4 mph - 0.01 in Rain Light Rain
6:32 AM 60.8 °F 57.2 °F 88% 30.05 in 3.0 mi North 8.1 mph - 0.03 in Rain Light Rain
6:53 AM 59.0 °F 57.0 °F 93% 30.06 in 4.0 mi North 10.4 mph - 0.03 in Rain Light Rain
7:03 AM 59.0 °F 57.2 °F 94% 30.07 in 3.0 mi North 8.1 mph - 0.01 in Rain Light Rain
7:11 AM 59.0 °F 57.2 °F 94% 30.07 in 4.0 mi North 8.1 mph - 0.01 in Rain Light Rain
7:20 AM 59.0 °F 57.2 °F 94% 30.08 in 5.0 mi North 8.1 mph - 0.01 in Rain Light Rain
7:32 AM 59.0 °F 57.2 °F 94% 30.09 in 2.5 mi North 5.8 mph - 0.01 in Rain Light Rain
7:42 AM 59.0 °F 57.2 °F 94% 30.09 in 2.0 mi North 5.8 mph - 0.03 in Rain Light Rain
7:53 AM 59.0 °F 57.0 °F 93% 30.09 in 3.0 mi North 6.9 mph - 0.04 in Rain Light Rain
8:00 AM 59.0 °F 57.2 °F 94% 30.10 in 5.0 mi North 5.8 mph - 0.00 in Rain Light Rain
8:53 AM 61.0 °F 57.9 °F 90% 30.12 in 9.0 mi NNE 6.9 mph - 0.00 in Rain Light Rain
9:53 AM 61.0 °F 57.0 °F 87% 30.14 in 9.0 mi NNE 5.8 mph - 0.00 in Rain Light Rain
10:53 AM 63.0 °F 57.0 °F 81% 30.14 in 10.0 mi NNE 6.9 mph - 0.00 in   Mostly Cloudy
11:44 AM 64.4 °F 55.4 °F 73% 30.15 in 10.0 mi North 6.9 mph - N/A   Overcast
11:53 AM 64.9 °F 57.0 °F 75% 30.14 in 10.0 mi North 8.1 mph - N/A   Mostly Cloudy
12:15 PM 64.4 °F 55.4 °F 73% 30.13 in 10.0 mi NNE 6.9 mph - N/A   Mostly Cloudy
12:53 PM 66.0 °F 55.0 °F 68% 30.12 in 10.0 mi North 6.9 mph - N/A   Mostly Cloudy
1:14 PM 68.0 °F 55.4 °F 64% 30.11 in 10.0 mi North 6.9 mph - N/A   Scattered Clouds
1:53 PM 69.1 °F 55.0 °F 61% 30.09 in 10.0 mi North 9.2 mph - N/A   Clear
2:53 PM 71.1 °F 52.0 °F 51% 30.09 in 10.0 mi NNW 8.1 mph - N/A   Clear
3:53 PM 71.1 °F 48.0 °F 44% 30.09 in 10.0 mi North 8.1 mph - N/A   Clear
4:53 PM 69.1 °F 39.9 °F 35% 30.11 in 10.0 mi North 10.4 mph - N/A   Clear
5:53 PM 64.0 °F 39.0 °F 40% 30.13 in 10.0 mi NNW 8.1 mph - N/A   Clear
6:53 PM 60.8 °F 35.6 °F 39% 30.16 in 10.0 mi North 4.6 mph - N/A   Clear
7:53 PM 57.0 °F 34.0 °F 42% 30.17 in 10.0 mi NNW 10.4 mph - N/A   Clear
8:53 PM 55.0 °F 33.1 °F 43% 30.19 in 10.0 mi North 10.4 mph - N/A   Clear
9:53 PM 53.1 °F 34.0 °F 48% 30.20 in 10.0 mi North 8.1 mph - N/A   Clear
10:53 PM 51.1 °F 34.0 °F 52% 30.22 in 10.0 mi North 8.1 mph - N/A   Clear
11:53 PM 50.0 °F 33.1 °F 52% 30.22 in 10.0 mi North 5.8 mph - N/A   Clear